Regional Weather Roundup
Issued by NWS

Home | Current Version | Previous Version | Graphics & Text | Print | Product List | Glossary On
Versions: 1 2 3 4 5 6 7 8 9 10 11 12 13 14 15 16 17 18 19 20 21 22 23 24 25 26 27
000
ASUS45 KTFX 271710
RWRMT
MONTANA REGIONAL WEATHER ROUNDUP
NATIONAL WEATHER SERVICE GREAT FALLS MT
1100 AM MDT TUE JUN 27 2017

NOTE: "FAIR" INDICATES FEW OR NO CLOUDS BELOW 12000 FEET WITH NO
SIGNIFICANT WEATHER AND/OR OBSTRUCTIONS TO VISIBILITY.

MTZ001>007-043-271800-
WEST OF THE DIVIDE

CITY           SKY/WX    TMP DP  RH WIND       PRES   REMARKS
KALISPELL      PTSUNNY   69  58  67 S7        29.81F
MISSOULA       MOSUNNY   70  54  56 E6        29.88F
BUTTE          CLOUDY    60  47  61 N3        29.98S
MULLAN PASS    MOSUNNY   59  44  57 VRB3      30.00R
ANACONDA         N/A     63  46  55 SW9       29.94F
DEER LODGE       N/A     61  52  72 CALM      29.96S
EUREKA           N/A     72  48  43 CALM      29.79S
HAMILTON         N/A     70  52  52 S7        29.90F
$$

MTZ008-052>055-271800-
SOUTHWEST MONTANA

CITY           SKY/WX    TMP DP  RH WIND       PRES   REMARKS
BOZEMAN        PTSUNNY   68  48  48 W7        29.89F
DILLON         CLOUDY    69  46  43 N6        29.96S
W YELLOWSTONE  CLOUDY    57  43  58 CALM      30.03R
ENNIS          MOSUNNY   66  43  42 VRB6G14   30.01S
THREE FORKS      N/A     70  50  49 W15       29.90R
$$

MTZ009-010-012-014-046-048-049-054-271800-
EAST SLOPES AND CENTRAL MONTANA

CITY           SKY/WX    TMP DP  RH WIND       PRES   REMARKS
CUT BANK       MOSUNNY   65  52  62 N13G21    29.79R
GREAT FALLS    CLOUDY    73  46  38 N16G26    29.77R
MALMSTROM AFB  CLOUDY    70  46  42 W15G21    29.77S
HELENA         CLOUDY    67  50  54 W9        29.86S
CHOTEAU          N/A     73  48  40 VRB5G13   29.79F
$$

MTZ011-013-016-021-045-047-050-051-271800-
NORTH CENTRAL MONTANA

CITY           SKY/WX    TMP DP  RH WIND       PRES   REMARKS
HAVRE          CLOUDY    78  53  41 NW23      29.68R
LEWISTOWN      SUNNY     74  46  36 NW17G26   29.77F
N BAR RANCH      N/A     77  43  29 W25G32    29.80F
CHINOOK          N/A     75  52  43 W17       29.64S
FORT BENTON      N/A    N/A N/A N/A MISG      29.72F
$$

MTZ017>020-022>027-061-062-271800-
NORTHEAST MONTANA

CITY           SKY/WX    TMP DP  RH WIND       PRES   REMARKS
GLASGOW        CLOUDY    80  51  36 NW20      29.60F
JORDAN           N/A     81  46  29 W23       29.65S
SIDNEY         MOSUNNY   82  48  30 S9        29.56F
WOLF POINT     CLOUDY    83  44  25 W10       29.59S
MALTA          CLOUDY    73  52  46 W15G24    29.62S
PLENTYWOOD       N/A     79  46  31 CALM      29.56F
POPLAR           N/A     81  46  30 W13G21    29.59R
$$

MTZ028>42-056>058-271800-
SOUTHCENTRAL AND SOUTHEAST MONTANA

CITY           SKY/WX    TMP DP  RH WIND       PRES   REMARKS
BAKER          SUNNY     85  45  24 W13G21    29.63F
BILLINGS       RAIN      71  52  50 W31G38    29.78S
LIVINGSTON     CLOUDY    68  45  43 SW20G26   29.86F
MILES CITY     CLOUDY    85  42  22 NW22G29   29.63R
BIG TIMBER     SUNNY     64  46  52 W12       29.88S
ROUNDUP          N/A     79  43  27 SW14      29.68F
$$

REGIONAL REPORTS...DAKOTAS

CITY           SKY/WX    TMP DP  RH WIND       PRES   REMARKS
WILLISTON      SUNNY     82  46  28 S13G20    29.57F
MINOT          CLOUDY    72  49  44 S16G24    29.61F
DICKINSON      CLOUDY    79  48  33 S14       29.61F
BEACH            N/A     84  45  24 SW9       29.63F
CROSBY           N/A     77  50  38 S12       29.57F
TIOGA            N/A     75  48  38 S17       29.60F
WATFORD CITY     N/A     79  50  36 SE10G17   29.57F
BISMARCK       SUNNY     80  54  40 S25       29.69F
GRAND FORKS    PTSUNNY   74  47  38 S18G31    29.79F
FARGO          PTSUNNY   75  45  34 S21G32    29.85F
BUFFALO SD       N/A     85  53  33 SW8       29.58F
RAPID CITY     CLOUDY    85  58  39 S18       29.66F
$$

REGIONAL REPORTS...WYOMING/IDAHO/WASHINGTON

CITY           SKY/WX    TMP DP  RH WIND       PRES   REMARKS
GILLETTE       MOSUNNY   81  46  29 NW14      29.78R
SHERIDAN       CLOUDY    73  53  49 CALM      29.78R
BUFFALO WY     CLOUDY    76  40  27 W12       29.84S
CODY           CLOUDY    75  44  33 W12G20    29.85F
YELLOWSTONE LA   N/A     48  44  86 VRB3      30.13R
IDAHO FALLS    PTSUNNY   68  50  52 NE7       29.97F THUNDER
SALMON         MOSUNNY   66  48  52 N5        29.93F
BOISE          SUNNY     77  50  38 NW9       29.94S
SPOKANE        MOSUNNY   68  52  56 W8        29.89S
$$

REGIONAL REPORTS...ALBERTA

CITY           SKY/WX    TMP DP  RH WIND       PRES   REMARKS
EDMONTON       PTSUNNY   55  45  67 W24G33    29.69R
CALGARY        MOSUNNY   61  39  44 VRB3      29.78R
LETHBRIDGE     PTSUNNY   63  46  55 N8G20     29.78F
MEDICINE HAT   MOSUNNY   70  48  46 NW17G25   29.69R
WATERTON GATE    N/A     61  48  63 E7          N/A
CARDSTON         N/A     61  46  59 NE5         N/A
$$

REGIONAL REPORTS...SASKATCHEWAN

CITY           SKY/WX    TMP DP  RH WIND       PRES   REMARKS
SWIFT CURRENT  CLOUDY    61  55  82 W24G30    29.59S
REGINA         PTSUNNY   77  52  41 S10       29.49F
SASKATOON      PTSUNNY   75  57  53 NW12      29.43S
CYPRESS HILLS    N/A     55  50  82 NW13G22     N/A
VAL MARIE        N/A     72  48  43 NW15        N/A
ROCKGLEN         N/A     84  43  23 W10G18      N/A
ASSINIBOIA       N/A     63  45  51 W24G30      N/A
$$




USA.gov is the U.S. government's official web portal to all federal, state and local government web resources and services.